GW4197 Weather Reports


Display with metric or nautical units.
time (UTC)temp
F
wind
direction
speed
MPH
gust
MPH
rain 1hr
in
rain 24hr
in
rain mn
in
humidity
%
barometer
mb
20260504002531 44 65 22.0 40.0 0.00 0.00 0.00 87 981.9
20260504002503 44 75 20.0 40.0 0.00 0.00 0.00 87 983.9
20260504002032 44 53 18.0 42.0 0.00 0.00 0.00 87 981.9
20260504002003 44 73 18.0 42.0 0.00 0.00 0.00 87 984.1
20260504001548 44 113 18.0 42.0 0.00 0.00 0.00 87 981.9
20260504001503 44 70 18.0 42.0 0.00 0.00 0.00 87 984.5
20260504001032 44 89 18.0 39.0 0.00 0.00 0.00 87 982.8
20260504001024 44 71 18.0 39.0 0.00 0.00 0.00 88 984.7
20260504000532 44 111 19.0 39.0 0.00 0.00 0.00 87 982.8
20260504000504 44 68 17.0 39.0 0.00 0.00 0.00 88 984.9
20260504000050 43 56 18.0 34.0 0.00 0.00 0.00 88 983.5
20260504000003 44 64 16.0 34.0 0.00 0.00 0.00 88 985.6
20260503235531 43 106 16.0 34.0 0.00 0.00 0.00 88 983.9
20260503235503 44 65 18.0 34.0 0.00 0.00 0.00 89 985.8
20260503235031 43 86 18.0 33.0 0.00 0.00 0.00 88 984.1
20260503235003 43 64 18.0 33.0 0.00 0.00 0.00 88 985.9
20260503234552 43 72 17.0 34.0 0.00 0.00 0.00 88 984.3
20260503234504 43 64 19.0 34.0 0.00 0.00 0.00 88 986.2
20260503234031 43 70 20.0 34.0 0.00 0.00 0.00 88 984.7
20260503234003 43 66 18.0 34.0 0.00 0.00 0.00 88 986.5
20260503233531 43 106 19.0 31.0 0.00 0.00 0.00 88 985.1
20260503233503 43 65 17.0 31.0 0.00 0.00 0.00 89 987.1
20260503233047 43 71 16.0 31.0 0.00 0.00 0.00 89 985.5
20260503233003 43 66 16.0 31.0 0.00 0.00 0.00 89 987.9
20260503232530 43 89 16.0 31.0 0.00 0.00 0.00 89 986.1
20260503232503 43 67 16.0 31.0 0.00 0.00 0.00 89 988.3
20260503232031 43 100 16.0 29.0 0.00 0.00 0.00 89 986.8
20260503232003 43 68 13.0 29.0 0.00 0.00 0.00 89 988.7
20260503231554 43 75 11.0 20.0 0.00 0.00 0.00 89 987.4
20260503231503 43 71 8.0 20.0 0.00 0.00 0.00 90 989.6
20260503231032 42 79 7.0 16.0 0.00 0.00 0.00 89 987.9
20260503231024 43 71 6.0 16.0 0.00 0.00 0.00 90 989.9
20260503230531 42 82 6.0 20.0 0.00 0.00 0.00 89 988.1
20260503230524 43 65 9.0 20.0 0.00 0.00 0.00 89 990.2
20260503230051 42 58 10.0 28.0 0.00 0.00 0.00 88 988.4
20260503230003 43 63 12.0 28.0 0.00 0.00 0.00 89 990.5
20260503225531 42 39 10.0 28.0 0.00 0.00 0.00 89 988.6
20260503225503 43 61 11.0 28.0 0.00 0.00 0.00 89 990.7
20260503225031 42 101 8.0 23.0 0.00 0.00 0.00 89 989.0
20260503225024 43 62 10.0 23.0 0.00 0.00 0.00 89 991.1
20260503224546 42 79 11.0 23.0 0.00 0.00 0.00 89 989.6
20260503224503 43 65 12.0 23.0 0.00 0.00 0.00 89 991.4
20260503224032 42 77 13.0 32.0 0.00 0.00 0.00 89 989.8
20260503224003 42 66 13.0 32.0 0.00 0.00 0.00 89 991.6
20260503223532 42 82 15.0 32.0 0.00 0.00 0.00 89 990.2
20260503223503 42 65 11.0 32.0 0.00 0.00 0.00 90 992.0
20260503223052 42 110 10.0 19.0 0.00 0.00 0.00 89 990.6
20260503223003 42 64 11.0 19.0 0.00 0.00 0.00 90 992.7
20260503222531 42 98 12.0 22.0 0.00 0.00 0.00 90 991.1
20260503222503 42 61 12.0 22.0 0.00 0.00 0.00 90 992.8
20260503222031 42 78 13.0 22.0 0.00 0.00 0.00 91 991.4
20260503222003 43 61 11.0 22.0 0.00 0.00 0.00 91 993.1
20260503221551 42 59 10.0 18.0 0.00 0.00 0.00 91 991.9
20260503221503 42 60 8.0 18.0 0.00 0.00 0.00 92 993.9
20260503221034 42 63 7.0 12.0 0.00 0.00 0.00 92 992.2
20260503221003 42 60 6.0 12.0 0.00 0.00 0.00 92 994.3
20260503220532 42 55 5.0 12.0 0.00 0.00 0.00 92 992.5
20260503220504 42 60 5.0 12.0 0.00 0.00 0.00 93 994.6
20260503220048 41 106 6.0 12.0 0.00 0.00 0.00 92 992.8
20260503220003 42 48 4.0 12.0 0.00 0.00 0.00 92 994.8
20260503215530 41 56 4.0 8.0 0.00 0.00 0.00 91 993.2
20260503215524 41 43 5.0 8.0 0.00 0.00 0.00 92 995.3
20260503215031 41 66 5.0 17.0 0.00 0.00 0.00 91 993.5
20260503215003 42 49 6.0 10.0 0.00 0.00 0.00 91 995.5
20260503214546 41 74 6.0 17.0 0.00 0.00 0.00 91 993.7
20260503214503 42 51 8.0 17.0 0.00 0.00 0.00 91 995.6
20260503214032 42 56 10.0 17.0 0.00 0.00 0.00 90 993.8
20260503214003 42 50 9.0 17.0 0.00 0.00 0.00 91 995.7
20260503213533 42 63 9.0 14.0 0.00 0.00 0.00 90 993.8
20260503213503 42 45 9.0 14.0 0.00 0.00 0.00 91 995.7
20260503213043 42 69 9.0 18.0 0.00 0.00 0.00 90 993.9
20260503213024 42 48 8.0 15.0 0.00 0.00 0.00 91 996.1
20260503212535 42 67 8.0 23.0 0.00 0.00 0.00 90 994.2
20260503212503 43 52 10.0 19.0 0.00 0.00 0.00 90 996.3
20260503212031 42 73 11.0 23.0 0.00 0.00 0.00 89 994.4
20260503212003 43 52 11.0 23.0 0.00 0.00 0.00 90 996.4
20260503211542 43 53 12.0 23.0 0.00 0.00 0.00 90 994.4
20260503211503 43 56 10.0 23.0 0.00 0.00 0.00 90 996.5
20260503211033 43 86 10.0 19.0 0.00 0.00 0.00 90 994.7
20260503211003 43 56 10.0 19.0 0.00 0.00 0.00 91 996.6
20260503210532 43 75 11.0 19.0 0.00 0.00 0.00 91 994.7
20260503210503 43 54 9.0 19.0 0.00 0.00 0.00 92 996.6
20260503210048 43 75 7.0 14.0 0.00 0.00 0.00 92 994.7
20260503210004 43 47 9.0 14.0 0.00 0.00 0.00 92 996.7
20260503205533 43 72 9.0 14.0 0.00 0.00 0.00 92 994.5
20260503205524 43 42 10.0 14.0 0.00 0.00 0.00 92 996.5
20260503205033 43 68 10.0 13.0 0.00 0.00 0.00 92 994.7
20260503205003 43 37 10.0 13.0 0.00 0.00 0.00 92 996.7
20260503204548 42 56 9.0 13.0 0.00 0.00 0.00 92 995.1
20260503204503 43 37 9.0 13.0 0.00 0.00 0.00 92 997.3
20260503204032 42 53 8.0 15.0 0.00 0.00 0.00 92 995.5
20260503204003 43 37 9.0 13.0 0.00 0.00 0.00 92 997.6
20260503203536 42 40 9.0 16.0 0.00 0.00 0.00 92 995.7
20260503203503 43 32 10.0 15.0 0.00 0.00 0.00 92 997.6
20260503203051 42 29 11.0 16.0 0.00 0.00 0.00 91 995.6
20260503203003 42 32 11.0 16.0 0.00 0.00 0.00 92 997.7
20260503202532 42 64 11.0 16.0 0.00 0.00 0.00 91 996.0
20260503202503 42 33 11.0 16.0 0.00 0.00 0.00 92 998.0
20260503202037 42 79 10.0 16.0 0.00 0.00 0.00 91 996.2
20260503202003 42 32 10.0 16.0 0.00 0.00 0.00 92 998.3
20260503201549 42 43 11.0 16.0 0.00 0.00 0.00 91 996.4
20260503201503 42 30 11.0 16.0 0.00 0.00 0.00 91 998.5
20260503201031 42 61 11.0 15.0 0.00 0.00 0.00 90 996.6
20260503201003 42 32 11.0 15.0 0.00 0.00 0.00 91 998.7
20260503200533 42 44 11.0 15.0 0.00 0.00 0.00 90 997.0
20260503200503 42 34 11.0 15.0 0.00 0.00 0.00 90 999.0
20260503200050 42 55 11.0 15.0 0.00 0.00 0.00 89 997.2
20260503200004 42 37 11.0 15.0 0.00 0.00 0.00 90 999.4
20260503195533 42 56 10.0 15.0 0.00 0.00 0.00 89 997.5
20260503195503 43 39 10.0 15.0 0.00 0.00 0.00 89 999.9
20260503195036 43 54 11.0 15.0 0.00 0.00 0.00 88 998.1
20260503195003 43 38 10.0 15.0 0.00 0.00 0.00 89 1000.3
20260503194550 43 53 10.0 15.0 0.00 0.00 0.00 87 998.3
20260503194503 44 42 9.0 15.0 0.00 0.00 0.00 88 1000.5
20260503194033 43 70 8.0 17.0 0.00 0.00 0.00 86 998.5
20260503194003 44 50 9.0 17.0 0.00 0.00 0.00 86 1000.7
20260503193531 44 60 9.0 24.0 0.00 0.00 0.00 85 998.7
20260503193503 44 49 12.0 24.0 0.00 0.00 0.00 85 1000.7
20260503193055 44 75 14.0 24.0 0.00 0.00 0.00 84 998.5
20260503193003 44 48 13.0 24.0 0.00 0.00 0.00 84 1000.4
20260503192532 44 61 13.0 19.0 0.00 0.00 0.00 84 998.5
20260503192503 44 49 12.0 19.0 0.00 0.00 0.00 84 1000.6
20260503192031 44 74 11.0 19.0 0.00 0.00 0.00 83 998.8
20260503192003 44 51 11.0 19.0 0.00 0.00 0.00 83 1000.9
20260503191543 44 67 12.0 19.0 0.00 0.00 0.00 82 999.2
20260503191503 44 52 12.0 19.0 0.00 0.00 0.00 83 1001.6
20260503191033 44 92 14.0 22.0 0.00 0.00 0.00 82 999.6
20260503191003 44 51 12.0 22.0 0.00 0.00 0.00 82 1001.9
20260503190531 44 68 13.0 22.0 0.00 0.00 0.00 81 999.8
20260503190504 44 50 12.0 22.0 0.00 0.00 0.00 81 1002.1
20260503190052 44 72 12.0 17.0 0.00 0.00 0.00 80 1000.6
20260503190003 45 51 10.0 17.0 0.00 0.00 0.00 80 1002.7
20260503185531 44 63 10.0 16.0 0.00 0.00 0.00 79 1001.1
20260503185503 45 54 9.0 16.0 0.00 0.00 0.00 79 1003.3
20260503185034 45 77 7.0 13.0 0.00 0.00 0.00 77 1001.4
20260503185004 45 58 8.0 13.0 0.00 0.00 0.00 78 1003.9
20260503184555 45 74 6.0 16.0 0.00 0.00 0.00 75 1002.0
20260503184503 46 59 8.0 16.0 0.00 0.00 0.00 76 1004.2
20260503184032 46 73 7.0 17.0 0.00 0.00 0.00 73 1002.3
20260503184003 46 60 8.0 16.0 0.00 0.00 0.00 73 1004.4
20260503183531 47 88 9.0 17.0 0.00 0.00 0.00 69 1002.4
20260503183503 48 64 9.0 17.0 0.00 0.00 0.00 70 1004.4
20260503183047 47 84 10.0 20.0 0.00 0.00 0.00 68 1002.5
20260503183003 48 67 10.0 20.0 0.00 0.00 0.00 68 1004.5
20260503182541 48 77 10.0 20.0 0.00 0.00 0.00 65 1002.5
20260503182503 48 74 8.0 20.0 0.00 0.00 0.00 65 1004.6
20260503182035 48 70 6.0 12.0 0.00 0.00 0.00 61 1003.0
20260503182005 49 82 6.0 12.0 0.00 0.00 0.00 62 1005.2
20260503181542 49 88 7.0 14.0 0.00 0.00 0.00 60 1003.1
20260503181504 49 91 6.0 14.0 0.00 0.00 0.00 60 1005.4
20260503181031 49 120 7.0 15.0 0.00 0.00 0.00 58 1003.5
20260503181003 50 104 7.0 15.0 0.00 0.00 0.00 59 1006.0
20260503180531 49 108 9.0 16.0 0.00 0.00 0.00 57 1003.9
20260503180524 50 103 7.0 16.0 0.00 0.00 0.00 57 1006.2
20260503180051 50 149 6.0 16.0 0.00 0.00 0.00 55 1004.1
20260503180004 50 100 6.0 16.0 0.00 0.00 0.00 56 1006.3
20260503175530 50 138 7.0 14.0 0.00 0.00 0.00 55 1004.2
20260503175503 51 92 5.0 14.0 0.00 0.00 0.00 56 1006.5
20260503175030 51 191 5.0 12.0 0.00 0.00 0.00 55 1004.5
20260503175003 51 99 5.0 12.0 0.00 0.00 0.00 55 1006.8
20260503174603 51 123 4.0 10.0 0.00 0.00 0.00 57 1004.7
20260503174503 52 123 4.0 10.0 0.00 0.00 0.00 57 1007.0
20260503174034 52 160 4.0 14.0 0.00 0.00 0.00 56 1005.0
20260503174003 52 121 5.0 14.0 0.00 0.00 0.00 56 1007.4
20260503173530 52 140 5.0 14.0 0.00 0.00 0.00 52 1005.0
20260503173524 52 108 6.0 14.0 0.00 0.00 0.00 53 1007.3
20260503173048 52 115 6.0 11.0 0.00 0.00 0.00 50 1005.1
20260503173003 53 97 5.0 11.0 0.00 0.00 0.00 51 1007.2
20260503172530 52 107 4.0 11.0 0.00 0.00 0.00 50 1005.0
20260503172504 52 87 4.0 11.0 0.00 0.00 0.00 51 1007.2
20260503172032 52 0 6.0 11.0 0.00 0.00 0.00 49 1005.2
20260503172025 52 87 4.0 11.0 0.00 0.00 0.00 49 1007.4
20260503171549 52 155 4.0 7.0 0.00 0.00 0.00 51 1005.8
20260503171503 52 97 3.0 7.0 0.00 0.00 0.00 51 1008.0
20260503171031 51 86 3.0 8.0 0.00 0.00 0.00 54 1005.9
20260503171003 52 117 3.0 8.0 0.00 0.00 0.00 54 1008.2
20260503170534 51 218 4.0 8.0 0.00 0.00 0.00 52 1006.3
20260503170503 52 126 1.0 8.0 0.00 0.00 0.00 52 1008.4